Lewistown Municipal Airport Lewistown US
ICAO: KLWT
IATA: LWT
Category: Medium
Scheduled Services: Yes

Elevation: 4170 ft
TransAlt. 18000 ft.

Airport Communications:
ASOS:118.375
GREAT FALLS RDO:122.35
CTAF/UNICOM:123

KLWT Zoom In..

Runways:

(A) RW 03 length 5600 ft width 101 ft
---- / hdg 23

(B) RW 08 length 6100 ft width 100 ft
---- / hdg 75

(C) RW 13 length 4102 ft width 62 ft
---- / hdg 125

(D) RW 21 length 5600 ft width 101 ft
---- / hdg 203

(E) RW 26 length 6100 ft width 100 ft
---- / hdg 255

(F) RW 31 length 4102 ft width 62 ft
---- / hdg 305

Location; KLWT
Day. 23 / Time. 02.54 Zulu
* Altimeter: 30.31
* Temperature: 20° c. 68°f.
* Wind from: 000° Speed 00 kn.
Dewpoint: 04° c.
Visibility: 10 Statute Miles.
Clouds: Clear (automated report).

KLWT 230254Z AUTO 00000KT 10SM CLR 20/04 A3031 RMK AO2 SLP237 T02000039 53008


Wind - Calm.

 
 
jpsmedia.com for Web Design worldairports.se 2018   terms of use